Powrót do katalogu

GRUS-1A

AktywnyNaukaSSO
NORAD 43890·PAYLOAD·🇯🇵 Japan

Wystrzelony Dec 27, 2018 z Vostochny Cosmodrome

Loading…

Następne Przeloty (najbliższe 24 godziny)

TLE

ŚwieżeSource: Space-Track

Epoka: Sep 14, 2026, 15:06 UTC

1 43890U 18111Q   26257.62951251  .00000826  00000-0  72995-4 0  9991
2 43890  97.4358 120.7202 0007237 204.8025 155.2851 14.98855536421105

Śledź GRUS-1A w czasie rzeczywistym z AllMySat

Download on the App Store